This demonstration page uses our WeatherBlox Daily Observations layout. Learn more.

Left ArrowRight Arrow

47.50024, -111.30081

Hourly Observations for January 24, 2016

Temp ( °F °C ) Dew Point ( °F °C ) Humidity (%) Winds ( mph kmh ) Pressure ( in mb ) Visibility ( mi km ) Precip ( " mm )
12:53 am 00:53 Cloudy 35 1.7 32 0 89 89 WSW 9 15 29.75 1007 10 16 0.00 0.00
1:53 am 01:53 Cloudy 32 0 31 -0.6 96 96 W 7 11 29.76 1008 10 16 0.00 0.00
2:53 am 02:53 Mostly Clear 32 0 30 -1.1 92 92 SSW 10 17 29.76 1008 10 16 0.00 0.00
3:53 am 03:53 Clear 32 0 28 -2.2 85 85 SSW 10 17 29.78 1008 10 16 0.00 0.00
4:53 am 04:53 Mostly Clear 32 0 28 -2.2 85 85 SSW 12 19 29.78 1008 10 16 0.00 0.00
5:53 am 05:53 Clear 33 0.6 28 -2.2 82 82 SSW 13 20 29.79 1009 10 16 0.00 0.00
6:53 am 06:53 Clear 32 0 27 -2.8 82 82 SSW 13 20 29.80 1009 10 16 0.00 0.00
7:53 am 07:53 Clear 34 1.1 27 -2.8 76 76 SW 15 24 29.80 1009 10 16 0.00 0.00
8:53 am 08:53 Sunny 35 1.7 28 -2.2 76 76 SW 16 26 29.80 1009 10 16 0.00 0.00
9:53 am 09:53 Mostly Sunny 36 2.2 28 -2.2 73 73 SW 17 28 29.81 1010 10 16 0.00 0.00
10:53 am 10:53 Mostly Sunny 38 3.3 29 -1.7 70 70 SW 14 22 29.82 1010 10 16 0.00 0.00
11:53 am 11:53 Cloudy 38 3.3 29 -1.7 70 70 WSW 16 26 29.82 1010 10 16 0.00 0.00
12:53 pm 12:53 Cloudy 39 3.9 29 -1.7 67 67 WSW 14 22 29.84 1011 10 16 0.00 0.00
1:53 pm 13:53 Cloudy 39 3.9 27 -2.8 62 62 WSW 9 15 29.86 1011 10 16 0.00 0.00
2:53 pm 14:53 Cloudy 36 2.2 30 -1.1 79 79 NNW 16 26 29.91 1013 10 16 0.00 0.00
3:03 pm 15:03 Cloudy with Light Snow 34 1 30 -1 87 87 NNW 13 20 29.91 1013 3 4 0.00 0.00
3:14 pm 15:14 Cloudy with Light Snow 34 1 30 -1 87 87 N 9 15 29.91 1013 3 5 0.00 0.00
3:31 pm 15:31 Cloudy with Light Snow 33 0.6 31 -0.6 92 92 NNW 9 15 29.91 1013 2 3 0.00 0.03
3:34 pm 15:34 Cloudy with Light Snow 34 1 30 -1 87 87 NW 10 17 29.91 1013 1 2 0.00 0.00
3:47 pm 15:47 Cloudy with Light Snow 34 1 30 -1 87 87 NNW 13 20 29.94 1014 2 3 0.00 0.03
3:48 pm 15:48 Cloudy with Light Snow 33 0.6 30 -1.1 89 89 NNW 13 20 29.95 1014 2 3 0.00 0.03
4:08 pm 16:08 Cloudy 34 1 30 -1 87 87 NNW 10 17 29.94 1014 8 13 0.00 0.00
4:20 pm 16:20 Cloudy 34 1 30 -1 87 87 NNW 12 19 29.94 1014 10 16 0.00 0.00
4:53 pm 16:53 Cloudy 32 0 30 -1.1 92 92 NNW 10 17 29.99 1016 10 16 0.01 0.25
5:53 pm 17:53 Cloudy 32 0 29 -1.7 88 88 NW 12 19 30.03 1017 7 11 0.00 0.00
6:16 pm 18:16 Cloudy 32 0 29 -1.7 88 88 NW 12 19 30.03 1017 9 14 0.00 0.00
6:53 pm 18:53 Cloudy 31 -0.6 28 -2.2 89 89 WNW 10 17 30.07 1018 10 16 0.00 0.00
7:37 pm 19:37 Cloudy 30 -1.1 26 -3.3 85 85 NW 20 31 30.09 1019 10 16 0.00 0.00
7:53 pm 19:53 Cloudy 31 -0.6 26 -3.3 82 82 NW 15 24 30.10 1019 10 16 0.00 0.00
8:10 pm 20:10 Cloudy 30 -1 27 -3 86 86 NNW 16 26 30.12 1020 10 16 0.00 0.00
8:53 pm 20:53 Cloudy 30 -1.1 27 -2.8 88 88 NW 10 17 30.13 1020 10 16 0.00 0.00
9:37 pm 21:37 Cloudy 30 -1.1 26 -3.3 85 85 NNW 10 17 30.15 1021 10 16 0.00 0.00
9:53 pm 21:53 Cloudy 30 -1.1 26 -3.3 85 85 NNW 8 13 30.15 1021 10 16 0.00 0.00
10:05 pm 22:05 Cloudy 30 -1.1 26 -3.3 85 85 NW 7 11 30.15 1021 10 16 0.00 0.00
10:53 pm 22:53 Cloudy 30 -1.1 27 -2.8 88 88 W 8 13 30.16 1021 10 16 0.00 0.00
11:53 pm 23:53 Cloudy 30 -1.1 26 -3.3 85 85 SW 8 13 30.17 1022 10 16 0.00 0.03

Powered by AerisWeather